Weather History for Hot Springs, VA

Change the Weather History Date:

Wednesday, March 12, 2014

  Actual Average Record
Temperature  
Mean Temperature 38 °F -  
Max Temperature 55 °F 41 °F 69 °F (2006)
Min Temperature 19 °F 25 °F 3 °F (1998)
Degree Days  
Heating Degree Days 27    
Moisture  
Dew Point 36 °F    
Average Humidity 75    
Maximum Humidity 100    
Minimum Humidity 44    
Precipitation  
Precipitation 0.16 in - - ()
Sea Level Pressure  
Sea Level Pressure 29.48 in    
Wind  
Wind Speed 15 mph (WSW)    
Max Wind Speed 39 mph    
Max Gust Speed 55 mph    
Visibility 8 miles    
Events Rain , Snow    
Averages and records for this station are not official NWS values.
T = Trace of Precipitation, MM = Missing Value Source: NWS Daily Summary

Daily Weather History Graph

Daily Weather History Graph

Search for Another Location

Airport:

Trip Planner

Search our weather history database for the weather conditions in past years. The results will help you decide how hot, cold, wet, or windy it might be!

Date:

Astronomy

Mar. 12, 2014 Rise Set
Actual Time 7:34 AM EDT 7:23 PM EDT
Civil Twilight 7:08 AM EDT 7:49 PM EDT
Nautical Twilight 6:38 AM EDT 8:20 PM EDT
Astronomical Twilight 6:07 AM EDT 8:51 PM EDT
Moon 3:55 PM EDT (3/12) 5:02 AM EDT (3/12)
Length of Visible Light 12h 41m
Length of Day
11h 48m
Waxing Gibbous, 85% of the Moon is Illuminated
Mar 12
Waxing Gibbous
Mar 16
Full
Mar 23
Last Quarter
Mar 30
New
Apr 7
First Quarter

Hourly Weather History & Observations

Time (EDT) Temp. Windchill Dew Point Humidity Pressure Visibility Wind Dir Wind Speed Gust Speed Precip Events Conditions
12:10 AM 53.6 °F - 32.0 °F 44% 29.77 in 10.0 mi West 8.1 mph - N/A   Clear
12:30 AM 51.8 °F - 32.0 °F 47% 29.76 in 10.0 mi West 9.2 mph - N/A   Clear
1:00 AM 51.8 °F - 32.0 °F 47% 29.75 in 10.0 mi West 9.2 mph - N/A   Clear
1:15 AM 51.8 °F - 32.0 °F 47% 29.75 in 10.0 mi West 9.2 mph - N/A   Clear
1:35 AM 50.0 °F - 32.0 °F 50% 29.75 in 10.0 mi WSW 11.5 mph - N/A   Clear
1:50 AM 50.0 °F - 32.0 °F 50% 29.74 in 10.0 mi WSW 11.5 mph - N/A   Clear
2:15 AM 51.8 °F - 33.8 °F 50% 29.72 in 10.0 mi WSW 12.7 mph - N/A   Clear
2:40 AM 51.8 °F - 33.8 °F 50% 29.71 in 10.0 mi WSW 15.0 mph - N/A   Clear
2:50 AM 51.8 °F - 33.8 °F 50% 29.71 in 10.0 mi West 12.7 mph - N/A   Clear
3:16 AM 50.0 °F - 33.8 °F 54% 29.69 in 10.0 mi WSW 12.7 mph - N/A   Clear
3:36 AM 50.0 °F - 35.6 °F 58% 29.67 in 10.0 mi WSW 11.5 mph - N/A   Clear
3:56 AM 50.0 °F - 35.6 °F 58% 29.66 in 10.0 mi WSW 12.7 mph - N/A   Clear
4:16 AM 51.8 °F - 35.6 °F 54% 29.65 in 10.0 mi WSW 13.8 mph - N/A   Clear
4:36 AM 51.8 °F - 35.6 °F 54% 29.63 in 10.0 mi West 13.8 mph - N/A   Clear
4:50 AM 51.8 °F - 35.6 °F 54% 29.63 in 10.0 mi WSW 13.8 mph - N/A   Clear
5:36 AM 51.8 °F - 37.4 °F 58% 29.61 in 10.0 mi WSW 12.7 mph - N/A   Scattered Clouds
5:56 AM 51.8 °F - 37.4 °F 58% 29.61 in 10.0 mi WSW 12.7 mph - N/A   Overcast
6:16 AM 51.8 °F - 39.2 °F 62% 29.61 in 10.0 mi SW 13.8 mph - N/A   Mostly Cloudy
6:36 AM 53.6 °F - 41.0 °F 62% 29.59 in 10.0 mi WSW 15.0 mph - N/A   Scattered Clouds
6:56 AM 53.6 °F - 42.8 °F 67% 29.59 in 10.0 mi SW 11.5 mph - N/A   Mostly Cloudy
7:16 AM 53.6 °F - 42.8 °F 67% 29.59 in 10.0 mi SW 15.0 mph 20.7 mph N/A   Overcast
7:36 AM 55.4 °F - 44.6 °F 67% 29.57 in 10.0 mi SW 12.7 mph 21.9 mph N/A   Overcast
7:56 AM 53.6 °F - 44.6 °F 72% 29.57 in 10.0 mi SSW 10.4 mph 19.6 mph N/A   Overcast
8:10 AM 53.6 °F - 44.6 °F 72% 29.56 in 10.0 mi SW 10.4 mph - N/A   Overcast
8:30 AM 55.4 °F - 44.6 °F 67% 29.55 in 10.0 mi SW 10.4 mph 17.3 mph N/A Rain Rain
9:16 AM 53.6 °F - 41.0 °F 62% 29.51 in 10.0 mi SSW 11.5 mph 18.4 mph N/A   Mostly Cloudy
9:36 AM 53.6 °F - 41.0 °F 62% 29.50 in 10.0 mi South 13.8 mph 20.7 mph N/A   Overcast
9:40 AM 53.6 °F - 41.0 °F 62% 29.49 in 10.0 mi South 11.5 mph 20.7 mph N/A   Mostly Cloudy
9:55 AM 53.6 °F - 39.2 °F 58% 29.49 in 10.0 mi South 12.7 mph - N/A   Mostly Cloudy
10:30 AM 53.6 °F - 41.0 °F 62% 29.46 in 10.0 mi South 15.0 mph 19.6 mph N/A   Overcast
10:56 AM 51.8 °F - 44.6 °F 76% 29.46 in 7.0 mi SW 19.6 mph 25.3 mph N/A Rain Rain
11:16 AM 51.8 °F - 44.6 °F 76% 29.44 in 10.0 mi SW 17.3 mph 26.5 mph N/A   Light Drizzle
11:36 AM 51.8 °F - 46.4 °F 82% 29.42 in 7.0 mi SW 13.8 mph 21.9 mph N/A   Drizzle
11:50 AM 51.8 °F - 46.4 °F 82% 29.41 in 10.0 mi SW 18.4 mph 21.9 mph N/A   Overcast
12:16 PM 53.6 °F - 46.4 °F 77% 29.39 in 10.0 mi SW 13.8 mph 25.3 mph N/A   Overcast
12:36 PM 53.6 °F - 48.2 °F 82% 29.38 in 7.0 mi WSW 18.4 mph 25.3 mph N/A   Overcast
12:55 PM 51.8 °F - 48.2 °F 88% 29.36 in 7.0 mi SW 16.1 mph 28.8 mph N/A   Overcast
12:56 PM 51.8 °F - 48.2 °F 88% 29.36 in 7.0 mi WSW 13.8 mph - N/A   Overcast
1:38 PM 51.8 °F - 48.2 °F 88% 29.34 in 4.0 mi WSW 18.4 mph 24.2 mph N/A Rain Light Rain
1:56 PM 51.8 °F - 48.2 °F 88% 29.32 in 3.0 mi WSW 17.3 mph 28.8 mph 0.01 in Rain Light Rain
2:19 PM 51.8 °F - 48.2 °F 88% 29.31 in 10.0 mi WSW 19.6 mph 28.8 mph 0.01 in   Overcast
2:35 PM 53.6 °F - 50.0 °F 88% 29.28 in 10.0 mi WSW 19.6 mph 31.1 mph 0.01 in   Overcast
3:16 PM 53.6 °F - 48.2 °F 82% 29.25 in 10.0 mi WSW 16.1 mph 23.0 mph N/A   Overcast
3:36 PM 53.6 °F - 48.2 °F 82% 29.24 in 5.0 mi SW 15.0 mph 24.2 mph 0.02 in Rain Rain
3:40 PM 53.6 °F - 48.2 °F 82% 29.24 in 7.0 mi WSW 25.3 mph 29.9 mph 0.03 in Rain Rain
4:15 PM 48.2 °F - 48.2 °F 100% 29.26 in 0.2 mi West 26.5 mph 38.0 mph 0.11 in Rain Rain
4:35 PM 48.2 °F - 46.4 °F 93% 29.25 in 1.8 mi West 21.9 mph 40.3 mph 0.11 in   Overcast
4:55 PM 44.6 °F 33.5 °F 44.6 °F 100% 29.24 in 10.0 mi West 39.1 mph 52.9 mph N/A   Overcast
5:15 PM 42.8 °F 31.4 °F 39.2 °F 87% 29.25 in 10.0 mi West 35.7 mph 55.2 mph N/A   Overcast
5:30 PM 39.2 °F 27.8 °F 37.4 °F 93% 29.28 in 2.0 mi West 27.6 mph 41.4 mph N/A   Overcast
5:55 PM 33.8 °F 19.9 °F 30.2 °F 87% 29.30 in 7.0 mi West 31.1 mph 47.2 mph N/A   Overcast
6:15 PM 30.2 °F 14.7 °F 28.4 °F 93% 29.31 in 5.0 mi West 32.2 mph 44.9 mph N/A   Overcast
6:35 PM 28.4 °F 14.1 °F 26.6 °F 93% 29.34 in 7.0 mi WNW 24.2 mph 43.7 mph N/A   Overcast
6:55 PM 28.4 °F 11.4 °F 24.8 °F 86% 29.34 in 10.0 mi West 36.8 mph 48.3 mph N/A   Overcast
7:15 PM 28.4 °F 13.0 °F 24.8 °F 86% 29.35 in 10.0 mi WNW 28.8 mph 50.6 mph N/A   Overcast
7:35 PM 28.4 °F 12.3 °F 23.0 °F 80% 29.36 in 10.0 mi West 32.2 mph 48.3 mph N/A   Overcast
7:55 PM 26.6 °F 10.8 °F 24.8 °F 93% 29.39 in 10.0 mi WNW 27.6 mph 49.5 mph N/A   Overcast
8:15 PM 26.6 °F 11.7 °F 24.8 °F 93% 29.41 in 10.0 mi WNW 24.2 mph 40.3 mph N/A   Overcast
8:35 PM 26.6 °F 11.4 °F 24.8 °F 93% 29.43 in 7.0 mi West 25.3 mph 34.5 mph N/A   Overcast
8:55 PM 24.8 °F 10.3 °F 24.8 °F 100% 29.43 in 0.8 mi WNW 20.7 mph 31.1 mph N/A Snow Light Snow
9:15 PM 24.8 °F 9.3 °F 24.8 °F 100% 29.44 in 4.0 mi WNW 24.2 mph 33.4 mph N/A Snow Light Snow
9:35 PM 23.0 °F 8.7 °F 23.0 °F 100% 29.46 in 3.0 mi WNW 18.4 mph 34.5 mph N/A Snow Light Snow
9:55 PM 23.0 °F 7.6 °F 21.2 °F 93% 29.45 in 5.0 mi WNW 21.9 mph 34.5 mph N/A Snow Light Snow
10:15 PM 23.0 °F 7.2 °F 19.4 °F 86% 29.45 in 7.0 mi WNW 23.0 mph 34.5 mph N/A Snow Light Snow
10:35 PM 21.2 °F 4.9 °F 19.4 °F 93% 29.46 in 7.0 mi WNW 23.0 mph 42.6 mph N/A Snow Light Snow
10:55 PM 21.2 °F 6.4 °F 19.4 °F 93% 29.49 in 1.8 mi WNW 18.4 mph 34.5 mph N/A Snow Light Snow
11:15 PM 21.2 °F 7.8 °F 19.4 °F 93% 29.50 in 3.0 mi WNW 15.0 mph 35.7 mph N/A Snow Light Snow
11:35 PM 21.2 °F 3.9 °F 17.6 °F 86% 29.49 in 5.0 mi WNW 26.5 mph 38.0 mph N/A Snow Light Snow
11:55 PM 19.4 °F 2.5 °F 15.8 °F 86% 29.48 in 10.0 mi NW 23.0 mph 46.0 mph N/A   Overcast